Flag for Germany Weather past 2 weeks in Schwerin, Mecklenburg-Western Pomerania, Germany

Now
55 °F

Overcast.


Feels Like: 54 °F
Forecast: 46 / 60 °F
Wind: 6 mph from Northwest

Location: Schwerin

Current Time: May 27, 2015 at 4:13:00 PM

Latest Report: May 27, 2015 at 4:00 PM


Visibility: 19 mi

Pressure: 30.13 "Hg

Humidity: 59%

Dew point: 41 °F

Location of SchwerinLocation

Historic Weather in Schwerin — Graph

°F

Schwerin temperature yesterday

Maximum temperature yesterday: 59 °F (at 6:00 PM)
Minimum temperature yesterday: 45 °F (at 4:00 AM)
Average temperature yesterday: 52 °F

Past Weeks' High & Low Weather Summary

 TemperatureHumidityPressure
High75 °F (May 12, 3:00 PM)98% (May 25, 4:00 AM)30.30 "Hg (May 25, 4:00 AM)
Low40 °F (May 16, 4:00 AM)36% (May 24, 6:00 PM)29.58 "Hg (May 19, 5:00 AM)
Average51 °F73%30.01 "Hg
* Reported May 12 3:00 PM — May 27 3:00 PM, Schwerin, Weather by CustomWeather, © 2015

Note: Actual official high and low records may vary slightly from our data, if they occured in-between our weather recording intervals... More about our weather records

Advertising

Schwerin weather history for previous 24 hours

 ConditionsComfort  
Time TempWeatherWind HumidityBarometerVisibility
3:00 PM
Wed, May 27
55 °FOvercast.7 mph61%30.14 "Hg17 mi
2:00 PM53 °FOvercast.8 mph63%30.14 "Hg19 mi
1:00 PM52 °FOvercast.7 mph63%30.15 "Hg19 mi
12:00 PM51 °FOvercast.6 mph68%30.15 "Hg22 mi
10:00 AM51 °FOvercast.5 mph62%30.14 "Hg19 mi
9:00 AM49 °FOvercast.5 mph77%30.14 "Hg22 mi
8:00 AM49 °FOvercast.5 mph82%30.13 "Hg17 mi
7:00 AM47 °FOvercast.5 mph89%30.12 "Hg13 mi
6:00 AM46 °FOvercast.6 mph88%30.11 "Hg14 mi
4:00 AM44 °FOvercast.5 mph91%30.12 "Hg14 mi
3:00 AM44 °FPassing clouds.5 mph92%30.12 "Hg11 mi
2:00 AM45 °FPassing clouds.3 mph88%30.11 "Hg15 mi
1:00 AM46 °FPassing clouds.3 mph84%30.11 "Hg17 mi
12:00 AM47 °FPassing clouds.5 mph78%30.10 "Hg22 mi
11:00 PM
Tue, May 26
48 °FPassing clouds.3 mph76%30.10 "Hg28 mi
10:00 PM50 °FPassing clouds.3 mph69%30.09 "Hg25 mi
9:00 PM52 °FOvercast.5 mph62%30.08 "Hg22 mi
8:00 PM55 °FPartly sunny.7 mph53%30.06 "Hg8 mi
7:00 PM57 °FPartly sunny.7 mph49%30.05 "Hg12 mi
6:00 PM59 °FOvercast.5 mph51%30.03 "Hg22 mi
5:00 PM58 °FPartly sunny.7 mph47%30.03 "Hg11 mi
4:00 PM56 °FPartly sunny.5 mph56%30.02 "Hg16 mi
Weather by CustomWeather, © 2015

See weather overviewHow to use our weather pages